Location: Newark
(48.9886°N, 1.2358°E)
Time: 04:38:38
(UTC+00:00)

Transit 4A - Pass Details

Date: 19 November 2019
Orbit: 870 x 975 km, 66.8° (Epoch: 08 December)

Event Time Altitude Azimuth Distance (km) Brightness Sun altitude
Exits shadow 05:18:20 11° 333° (NNW) 2,495 9.8 -18.0°
Maximum altitude 05:23:44 42° 43° (NE) 1,243 8.8 -17.2°
Drops below altitude 10° 05:29:15 10° 114° (ESE) 2,523 11.4 -16.3°
Sets 05:31:51 0° 121° (ESE) 3,453 12.3 -15.9°
